START_TIME,STEP,MOV.,M29,t_acc.,H22,t_acc.,H26,t_acc.,H30,t_acc.
1979-07-11 18:00:32.250 ,1,1,0.,24.0,0.,24.0,0.,24.0,0.,24.0
1979-07-11 18:00:56.250 ,2,1,0.,24.0,0.,24.0,0.,24.0,0.,24.0
1979-07-11 18:01:20.250 ,6,1,0.,24.0,0.,24.0,0.,24.0,0.,24.0
1979-07-11 18:01:44.250 ,5,1,0.,24.0,0.,24.0,0.,24.0,0.,24.0
1979-07-11 18:02:08.250 ,1,1,0.,24.0,0.,24.0,0.,24.0,0.,24.0
1979-07-11 18:02:32.250 ,2,1,0.,24.0,0.,24.0,0.,24.0,0.,24.0
1979-07-11 18:02:56.250 ,6,1,0.,24.0,0.,24.0,0.,24.0,0.,24.0
1979-07-11 18:03:20.250 ,5,1,0.,24.0,0.,24.0,0.,24.0,0.,24.0
1979-07-11 18:03:44.250 ,1,1,0.,24.0,0.,24.0,0.,24.0,0.,24.0
1979-07-11 18:04:08.250 ,2,1,0.,24.0,0.,24.0,0.,24.0,0.,24.0
1979-07-11 18:04:32.240 ,6,1,0.,24.0,0.,24.0,0.,24.0,0.,24.0
1979-07-11 18:04:56.240 ,5,1,0.,24.0,0.,24.0,0.,24.0,0.,24.0
1979-07-11 18:05:20.240 ,1,1,0.,24.0,0.,24.0,0.,24.0,0.,24.0
1979-07-11 18:05:44.240 ,0,0,0.,24.0,0.,24.0,0.,24.0,0.,24.0
1979-07-11 18:06:08.240 ,0,0,0.,24.0,0.,24.0,0.,24.0,0.,24.0
1979-07-11 18:06:32.240 ,5,1,0.,24.0,0.,24.0,0.,24.0,0.,24.0
1979-07-11 18:06:56.240 ,5,0,0.,24.0,0.,24.0,0.,24.0,0.,24.0
1979-07-11 18:07:20.240 ,4,1,0.,24.0,0.,24.0,0.,24.0,0.,24.0
1979-07-11 18:07:44.240 ,4,0,0.,24.0,0.,24.0,0.,24.0,0.,24.0
1979-07-11 18:08:08.240 ,0,0,0.,24.0,0.,24.0,0.,24.0,0.,24.0
1979-07-11 18:08:32.240 ,0,0,0.,24.0,0.,24.0,0.,24.0,0.,24.0
1979-07-11 18:09:07.650 ,0,0,,0,,0,,0,,0
1979-07-11 18:09:20.240 ,0,0,0.,24.0,0.,24.0,0.,24.0,0.,24.0
1979-07-11 18:09:44.240 ,1,1,0.,24.0,0.,24.0,0.,24.0,0.,24.0
1979-07-11 18:10:08.240 ,1,0,0.,24.0,0.,24.0,0.,24.0,0.,24.0
1979-07-11 18:10:32.240 ,0,1,0.,24.0,0.,24.0,0.,24.0,0.,24.0
1979-07-11 18:10:56.240 ,0,0,0.,24.0,0.,24.0,0.,24.0,0.,24.0
1979-07-11 18:11:20.240 ,0,1,0.,24.0,0.,24.0,0.,24.0,0.,24.0
1979-07-11 18:11:44.240 ,0,0,0.,24.0,0.,24.0,0.,24.0,0.,24.0
1979-07-11 18:12:08.240 ,1,1,0.,24.0,0.,24.0,0.,24.0,0.,24.0
1979-07-11 18:12:32.240 ,1,0,0.,24.0,0.,24.0,0.,24.0,0.,24.0
1979-07-11 18:12:56.240 ,2,1,0.,24.0,0.,24.0,0.,24.0,0.,24.0
1979-07-11 18:13:20.240 ,2,0,0.,24.0,0.,24.0,0.,24.0,0.,24.0
1979-07-11 18:13:44.240 ,3,1,0.,24.0,0.,24.0,0.,24.0,0.,24.0
1979-07-11 18:14:08.240 ,3,0,0.,24.0,0.,24.0,0.,24.0,0.,24.0
1979-07-11 18:14:32.240 ,4,1,0.,24.0,0.,24.0,0.,24.0,0.,24.0
1979-07-11 18:14:56.240 ,4,0,0.,24.0,0.,24.0,0.,24.0,0.,24.0
1979-07-11 18:15:20.240 ,5,1,0.,24.0,0.,24.0,0.,24.0,0.,24.0
1979-07-11 18:15:44.240 ,5,0,0.,24.0,0.,24.0,0.,24.0,0.,24.0
1979-07-11 18:16:08.240 ,6,1,0.,24.0,0.,24.0,0.,24.0,0.,24.0
1979-07-11 18:16:32.240 ,6,0,0.,24.0,0.,24.0,0.,24.0,0.,24.0
1979-07-11 18:16:56.240 ,7,1,0.,24.0,0.,24.0,0.,24.0,0.,24.0
1979-07-11 18:17:20.240 ,7,0,0.,24.0,0.,24.0,0.,24.0,0.,24.0
1979-07-11 18:17:44.240 ,7,1,0.,24.0,0.,24.0,0.,24.0,0.,24.0
1979-07-11 18:18:08.240 ,7,0,0.,24.0,0.,24.0,0.,24.0,0.,24.0
1979-07-11 18:18:32.240 ,6,1,0.,24.0,0.,24.0,0.,24.0,0.,24.0
1979-07-11 18:18:56.240 ,6,0,0.,24.0,0.,24.0,0.,24.0,0.,24.0
1979-07-11 18:19:20.240 ,5,1,0.,24.0,0.,24.0,0.,24.0,0.,24.0
1979-07-11 18:19:44.240 ,5,0,0.,24.0,0.,24.0,0.,24.0,0.,24.0
1979-07-11 18:20:08.240 ,4,1,0.,24.0,0.,24.0,0.,24.0,0.,24.0
1979-07-11 18:20:32.240 ,4,0,0.,24.0,0.,24.0,0.,24.0,0.,24.0
1979-07-11 18:20:56.240 ,3,1,0.,24.0,0.,24.0,0.,24.0,0.,24.0
1979-07-11 18:21:20.240 ,3,0,0.,24.0,0.,24.0,0.,24.0,0.,24.0
1979-07-11 18:21:44.240 ,2,1,0.,24.0,0.,24.0,0.,24.0,0.,24.0
1979-07-11 18:22:08.240 ,2,0,0.,24.0,0.,24.0,0.,24.0,0.,24.0
1979-07-11 18:22:32.240 ,1,1,0.,24.0,0.,24.0,0.,24.0,0.,24.0
1979-07-11 18:22:56.240 ,1,0,0.,24.0,0.,24.0,0.,24.0,0.,24.0
1979-07-11 18:23:20.240 ,0,1,0.,24.0,0.,24.0,0.,24.0,0.,24.0
1979-07-11 18:23:44.240 ,0,0,0.,24.0,0.,24.0,0.,24.0,0.,24.0
1979-07-11 18:24:08.240 ,0,1,0.,24.0,0.,24.0,0.,24.0,0.,24.0
1979-07-11 18:24:32.240 ,0,0,0.,24.0,0.,24.0,0.,24.0,0.,24.0
1979-07-11 18:24:56.240 ,1,1,0.,24.0,0.,24.0,0.,24.0,0.,24.0
1979-07-11 18:25:20.240 ,1,0,0.,24.0,0.,24.0,0.,24.0,0.,24.0
1979-07-11 18:25:44.240 ,2,1,0.,24.0,0.,24.0,0.,24.0,0.,24.0
1979-07-11 18:26:08.240 ,2,0,0.,24.0,0.,24.0,0.,24.0,0.,24.0
1979-07-11 18:26:32.240 ,3,1,0.,24.0,0.,24.0,0.,24.0,0.,24.0
1979-07-11 18:26:56.240 ,3,0,0.,24.0,0.,24.0,0.,24.0,0.,24.0
1979-07-11 18:27:20.240 ,4,1,0.,24.0,0.,24.0,0.,24.0,0.,24.0
1979-07-11 18:27:44.240 ,4,0,0.,24.0,0.,24.0,0.,24.0,0.,24.0
1979-07-11 18:28:08.240 ,0,0,,0,,0,,0,,0
1979-07-11 18:28:32.240 ,0,0,,0,,0,,0,,0
1979-07-11 18:28:32.240 ,5,0,0.,24.0,0.,24.0,0.,24.0,0.,24.0
1979-07-11 18:28:56.240 ,6,1,0.,24.0,0.,24.0,0.,24.0,0.,24.0
1979-07-11 18:29:20.240 ,6,0,0.,24.0,0.,24.0,0.,24.0,0.,24.0
1979-07-11 18:29:44.240 ,7,1,0.,24.0,0.,24.0,0.,24.0,0.,24.0
1979-07-11 18:30:08.240 ,7,0,0.,24.0,0.,24.0,0.,24.0,0.,24.0
1979-07-11 18:30:32.240 ,7,1,0.,24.0,0.,24.0,0.,24.0,0.,24.0
1979-07-11 18:30:56.240 ,7,0,0.,24.0,0.,24.0,0.,24.0,0.,24.0
1979-07-11 18:31:20.240 ,6,1,0.,24.0,0.,24.0,0.,24.0,0.,24.0
1979-07-11 18:31:44.240 ,6,0,0.,24.0,0.,24.0,0.,24.0,0.,24.0
1979-07-11 18:32:08.240 ,5,1,0.,24.0,0.,24.0,0.,24.0,0.,24.0
1979-07-11 18:32:32.240 ,5,0,0.,24.0,0.,24.0,0.,24.0,0.,24.0
1979-07-11 18:32:56.240 ,4,1,0.,24.0,0.,24.0,0.,24.0,0.,24.0
1979-07-11 18:33:20.240 ,4,0,0.,24.0,0.,24.0,0.,24.0,0.,24.0
1979-07-11 18:33:44.240 ,3,1,0.,24.0,0.,24.0,0.,24.0,0.,24.0
1979-07-11 18:34:08.240 ,3,0,0.,24.0,0.,24.0,0.,24.0,0.,24.0
1979-07-11 18:34:32.240 ,2,1,0.,24.0,0.,24.0,0.,24.0,0.,24.0
1979-07-11 18:34:56.240 ,2,0,0.,24.0,0.,24.0,0.,24.0,0.,24.0
1979-07-11 18:35:20.240 ,1,1,0.,24.0,0.,24.0,0.,24.0,0.,24.0
1979-07-11 18:35:44.240 ,1,0,0.,24.0,0.,24.0,0.,24.0,0.,24.0
1979-07-11 18:36:08.240 ,0,1,0.,24.0,0.,24.0,0.,24.0,0.,24.0
1979-07-11 18:36:32.240 ,0,0,0.,24.0,0.,24.0,0.,24.0,0.,24.0
1979-07-11 18:36:56.240 ,0,1,0.,24.0,0.,24.0,0.,24.0,0.,24.0
1979-07-11 18:37:20.240 ,0,0,0.,24.0,0.,24.0,0.,24.0,0.,24.0
1979-07-11 18:37:44.240 ,1,1,0.,24.0,0.,24.0,0.,24.0,0.,24.0
1979-07-11 18:38:08.240 ,1,0,0.,24.0,0.,24.0,0.,24.0,0.,24.0
1979-07-11 18:38:32.240 ,2,1,0.,24.0,0.,24.0,0.,24.0,0.,24.0
1979-07-11 18:38:56.240 ,2,0,0.,24.0,0.,24.0,0.,24.0,0.,24.0
1979-07-11 18:39:20.240 ,3,1,0.,24.0,0.,24.0,0.,24.0,0.,24.0
1979-07-11 18:39:44.240 ,3,0,0.,24.0,0.,24.0,0.,24.0,0.,24.0
1979-07-11 18:40:08.240 ,4,1,0.,24.0,0.,24.0,0.,24.0,0.,24.0
1979-07-11 18:40:32.240 ,4,0,0.,24.0,0.,24.0,0.,24.0,0.,24.0
1979-07-11 18:40:56.240 ,5,1,0.,24.0,0.,24.0,0.,24.0,0.,24.0
1979-07-11 18:41:20.240 ,5,0,0.,24.0,0.,24.0,0.,24.0,0.,24.0
1979-07-11 18:41:44.240 ,6,1,0.,24.0,0.,24.0,0.,24.0,0.,24.0
1979-07-11 18:42:08.240 ,6,0,0.,24.0,0.,24.0,0.,24.0,0.,24.0
1979-07-11 18:42:32.240 ,7,0,0.,24.0,0.,24.0,0.,24.0,0.,24.0
1979-07-11 18:42:56.240 ,7,0,0.,24.0,0.,24.0,0.,24.0,0.,24.0
1979-07-11 18:43:20.240 ,5,1,0.,24.0,0.,24.0,0.,24.0,0.,24.0
1979-07-11 18:43:44.240 ,1,1,0.,24.0,0.,24.0,0.,24.0,0.,24.0
1979-07-11 18:44:08.240 ,2,1,0.,24.0,0.,24.0,0.,24.0,0.,24.0
1979-07-11 18:44:32.240 ,6,1,0.,24.0,0.,24.0,0.,24.0,0.,24.0
1979-07-11 18:44:56.240 ,5,1,0.,24.0,0.,24.0,0.,24.0,0.,24.0
1979-07-11 18:45:20.240 ,1,1,0.,24.0,0.,24.0,0.,24.0,0.,24.0
1979-07-11 18:45:44.240 ,2,1,0.,24.0,0.,24.0,0.,24.0,0.,24.0
1979-07-11 18:46:08.240 ,6,1,0.,24.0,0.,24.0,0.,24.0,0.,24.0
1979-07-11 18:46:32.240 ,5,1,0.,24.0,0.,24.0,0.,24.0,0.,24.0
1979-07-11 18:46:56.240 ,1,1,0.,24.0,0.,24.0,0.,24.0,0.,24.0
1979-07-11 18:47:20.240 ,2,1,0.,24.0,0.,24.0,0.,24.0,0.,24.0
1979-07-11 18:47:44.240 ,6,1,0.,24.0,0.,24.0,0.,24.0,0.,24.0
1979-07-11 18:48:08.240 ,5,1,0.,24.0,0.,24.0,0.,24.0,0.,24.0
1979-07-11 18:48:32.240 ,1,1,0.,24.0,0.,24.0,0.,24.0,0.,24.0
1979-07-11 18:48:56.240 ,2,1,0.,24.0,0.,24.0,0.,24.0,0.,24.0
1979-07-11 18:49:20.240 ,6,1,0.,24.0,0.,24.0,0.,24.0,0.,24.0
1979-07-11 18:49:44.240 ,5,1,0.,24.0,0.,24.0,0.,24.0,0.,24.0
1979-07-11 18:50:08.240 ,1,1,0.,24.0,0.,24.0,0.,24.0,0.,24.0
1979-07-11 18:50:32.240 ,2,1,0.,24.0,0.,24.0,0.,24.0,0.,24.0
1979-07-11 18:50:56.240 ,6,1,0.,24.0,0.,24.0,0.,24.0,0.,24.0
1979-07-11 18:51:20.240 ,5,1,0.,24.0,0.,24.0,0.,24.0,0.,24.0
1979-07-11 18:51:44.240 ,1,1,0.,24.0,0.,24.0,0.,24.0,0.,24.0
1979-07-11 18:52:08.240 ,2,1,0.,24.0,0.,24.0,0.,24.0,0.,24.0
1979-07-11 18:52:32.240 ,6,1,0.,24.0,0.,24.0,0.,24.0,0.,24.0
1979-07-11 18:52:56.240 ,5,1,0.,24.0,0.,24.0,0.,24.0,0.,24.0
1979-07-11 18:53:20.240 ,1,1,0.,24.0,0.,24.0,0.,24.0,0.,24.0
1979-07-11 18:53:44.240 ,0,0,0.,24.0,0.,24.0,0.,24.0,0.,24.0
1979-07-11 18:54:08.240 ,0,0,0.,24.0,0.,24.0,0.,24.0,0.,24.0
1979-07-11 18:54:32.240 ,5,1,0.,24.0,0.,24.0,0.,24.0,0.,24.0
1979-07-11 18:54:56.240 ,5,0,0.,24.0,0.,24.0,0.,24.0,0.,24.0
1979-07-11 18:55:20.240 ,4,1,0.,24.0,0.,24.0,0.,24.0,0.,24.0
1979-07-11 18:55:44.240 ,4,0,0.,24.0,0.,24.0,0.,24.0,0.,24.0
1979-07-11 18:56:08.240 ,3,1,0.,24.0,0.,24.0,0.,24.0,0.,24.0
1979-07-11 18:56:32.240 ,3,0,0.,24.0,0.,24.0,0.,24.0,0.,24.0
1979-07-11 18:56:56.240 ,2,1,0.,24.0,0.,24.0,0.,24.0,0.,24.0
1979-07-11 18:57:20.240 ,2,0,0.,24.0,0.,24.0,0.,24.0,0.,24.0
1979-07-11 18:58:32.240 ,0,0,0.,24.0,0.,24.0,0.,24.0,0.,24.0
1979-07-11 18:58:56.240 ,0,0,0.,24.0,0.,24.0,0.,24.0,0.,24.0
1979-07-11 18:58:56.240 ,0,0,0.,24.0,0.,24.0,0.,24.0,0.,24.0
1979-07-11 18:59:20.240 ,0,1,0.,24.0,0.,24.0,0.,24.0,0.,24.0
1979-07-11 18:59:44.240 ,0,0,0.,24.0,0.,24.0,0.,24.0,0.,24.0
1979-07-11 19:00:08.240 ,1,1,0.,24.0,0.,24.0,0.,24.0,0.,24.0
1979-07-11 19:00:32.240 ,1,0,0.,24.0,0.,24.0,0.,24.0,0.,24.0
1979-07-11 19:00:56.240 ,2,1,0.,24.0,0.,24.0,0.,24.0,0.,24.0
1979-07-11 19:01:20.240 ,2,0,0.,24.0,0.,24.0,0.,24.0,0.,24.0
1979-07-11 19:01:44.240 ,3,1,0.,24.0,0.,24.0,0.,24.0,0.,24.0
1979-07-11 19:02:08.240 ,3,0,0.,24.0,0.,24.0,0.,24.0,0.,24.0
1979-07-11 19:02:32.240 ,4,1,0.,24.0,0.,24.0,0.,24.0,0.,24.0
1979-07-11 19:02:56.240 ,4,0,0.,24.0,0.,24.0,0.,24.0,0.,24.0
1979-07-11 19:03:20.240 ,5,1,0.,24.0,0.,24.0,0.,24.0,0.,24.0
1979-07-11 19:03:44.240 ,5,0,0.,24.0,0.,24.0,0.,24.0,0.,24.0
1979-07-11 19:04:08.240 ,6,1,0.,24.0,0.,24.0,0.,24.0,0.,24.0
1979-07-11 19:04:32.240 ,6,0,0.,24.0,0.,24.0,0.,24.0,0.,24.0
1979-07-11 19:04:56.240 ,7,1,0.,24.0,0.,24.0,0.,24.0,0.,24.0
1979-07-11 19:05:20.240 ,7,0,0.,24.0,0.,24.0,0.,24.0,0.,24.0
1979-07-11 19:05:44.240 ,7,1,0.,24.0,0.,24.0,0.,24.0,0.,24.0
1979-07-11 19:06:08.240 ,7,0,0.,24.0,0.,24.0,0.,24.0,0.,24.0
1979-07-11 19:06:32.240 ,6,1,0.,24.0,0.,24.0,0.,24.0,0.,24.0
1979-07-11 19:06:56.240 ,6,0,0.,24.0,0.,24.0,0.,24.0,0.,24.0
1979-07-11 19:07:20.240 ,5,1,0.,24.0,0.,24.0,0.,24.0,0.,24.0
1979-07-11 19:07:44.240 ,5,0,0.,24.0,0.,24.0,0.,24.0,0.,24.0
1979-07-11 19:08:56.240 ,0,0,0.,24.0,0.,24.0,0.,24.0,0.,24.0
1979-07-11 19:09:20.240 ,0,0,0.,24.0,0.,24.0,0.,24.0,0.,24.0
1979-07-11 19:09:44.320 ,2,1,0.,24.0,0.,24.0,0.,24.0,0.,24.0
1979-07-11 19:10:08.320 ,2,0,0.,24.0,0.,24.0,0.,24.0,0.,24.0
1979-07-11 19:10:32.320 ,1,1,0.,24.0,0.,24.0,0.,24.0,0.,24.0
1979-07-11 19:10:56.320 ,1,0,0.,24.0,0.,24.0,0.,24.0,0.,24.0
1979-07-11 19:11:20.320 ,0,1,0.,24.0,0.,24.0,0.,24.0,0.,24.0
1979-07-11 19:11:44.320 ,0,0,0.,24.0,0.,24.0,0.,24.0,0.,24.0
1979-07-11 19:12:08.320 ,0,1,0.,24.0,0.,24.0,0.,24.0,0.,24.0
1979-07-11 19:12:32.320 ,0,0,0.,24.0,0.,24.0,0.,24.0,0.,24.0
1979-07-11 19:12:56.320 ,1,1,0.,24.0,0.,24.0,0.,24.0,0.,24.0
1979-07-11 19:13:20.320 ,1,0,0.,24.0,0.,24.0,0.,24.0,0.,24.0
1979-07-11 19:13:44.320 ,2,1,0.,24.0,0.,24.0,0.,24.0,0.,24.0
1979-07-11 19:14:08.320 ,2,0,0.,24.0,0.,24.0,0.,24.0,0.,24.0
1979-07-11 19:14:32.320 ,3,1,0.,24.0,0.,24.0,0.,24.0,0.,24.0
1979-07-11 19:14:56.320 ,3,0,0.,24.0,0.,24.0,0.,24.0,0.,24.0
1979-07-11 19:15:20.320 ,4,1,0.,24.0,0.,24.0,0.,24.0,0.,24.0
1979-07-11 19:15:44.320 ,4,0,0.,24.0,0.,24.0,0.,24.0,0.,24.0
1979-07-11 19:16:08.320 ,5,1,0.,24.0,0.,24.0,0.,24.0,0.,24.0
1979-07-11 19:16:32.320 ,5,0,0.,24.0,0.,24.0,0.,24.0,0.,24.0
1979-07-11 19:16:56.320 ,6,1,0.,24.0,0.,24.0,0.,24.0,0.,24.0
1979-07-11 19:17:20.320 ,6,0,0.,24.0,0.,24.0,0.,24.0,0.,24.0
1979-07-11 19:17:44.320 ,7,1,0.,24.0,0.,24.0,0.,24.0,0.,24.0
1979-07-11 19:18:08.320 ,7,0,0.,24.0,0.,24.0,0.,24.0,0.,24.0
1979-07-11 19:18:32.320 ,7,1,0.,24.0,0.,24.0,0.,24.0,0.,24.0
1979-07-11 19:18:56.320 ,7,0,0.,24.0,0.,24.0,0.,24.0,0.,24.0
1979-07-11 19:19:20.320 ,6,1,0.,24.0,0.,24.0,0.,24.0,0.,24.0
1979-07-11 19:19:44.320 ,6,0,0.,24.0,0.,24.0,0.,24.0,0.,24.0
1979-07-11 19:20:08.320 ,5,1,0.,24.0,0.,24.0,0.,24.0,0.,24.0
1979-07-11 19:20:32.320 ,5,0,0.,24.0,0.,24.0,0.,24.0,0.,24.0
1979-07-11 19:21:44.320 ,0,0,0.,24.0,0.,24.0,0.,24.0,0.,24.0
1979-07-11 19:22:08.320 ,0,0,0.,24.0,0.,24.0,0.,24.0,0.,24.0
1979-07-11 19:22:08.320 ,0,0,0.,24.0,0.,24.0,0.,24.0,0.,24.0
1979-07-11 19:22:32.320 ,2,1,0.,24.0,0.,24.0,0.,24.0,0.,24.0
1979-07-11 19:22:56.320 ,2,0,0.,24.0,0.,24.0,0.,24.0,0.,24.0
1979-07-11 19:23:20.320 ,1,1,0.,24.0,0.,24.0,0.,24.0,0.,24.0
1979-07-11 19:23:44.320 ,1,0,0.,24.0,0.,24.0,0.,24.0,0.,24.0
1979-07-11 19:24:08.320 ,0,1,0.,24.0,0.,24.0,0.,24.0,0.,24.0
1979-07-11 19:24:32.320 ,0,0,0.,24.0,0.,24.0,0.,24.0,0.,24.0
1979-07-11 19:24:56.320 ,0,1,0.,24.0,0.,24.0,0.,24.0,0.,24.0
1979-07-11 19:25:20.320 ,0,0,0.,24.0,0.,24.0,0.,24.0,0.,24.0
1979-07-11 19:25:44.320 ,1,1,0.,24.0,0.,24.0,0.,24.0,0.,24.0
1979-07-11 19:26:08.320 ,1,0,0.,24.0,0.,24.0,0.,24.0,0.,24.0
1979-07-11 19:26:32.320 ,2,1,0.,24.0,0.,24.0,0.,24.0,0.,24.0
1979-07-11 19:26:56.320 ,2,0,0.,24.0,0.,24.0,0.,24.0,0.,24.0
1979-07-11 19:27:20.320 ,3,1,0.,24.0,0.,24.0,0.,24.0,0.,24.0
1979-07-11 19:27:44.320 ,3,0,0.,24.0,0.,24.0,0.,24.0,0.,24.0
1979-07-11 19:28:08.320 ,4,1,0.,24.0,0.,24.0,0.,24.0,0.,24.0
1979-07-11 19:28:32.320 ,4,0,0.,24.0,0.,24.0,0.,24.0,0.,24.0
1979-07-11 19:28:56.320 ,5,1,0.,24.0,0.,24.0,0.,24.0,0.,24.0
1979-07-11 19:29:20.320 ,5,0,0.,24.0,0.,24.0,0.,24.0,0.,24.0
1979-07-11 19:29:44.320 ,6,1,0.,24.0,0.,24.0,0.,24.0,0.,24.0
1979-07-11 19:30:08.320 ,6,0,0.,24.0,0.,24.0,0.,24.0,0.,24.0
1979-07-11 19:30:32.320 ,7,0,0.,24.0,0.,24.0,0.,24.0,0.,24.0
1979-07-11 19:30:56.320 ,7,0,0.,24.0,0.,24.0,0.,24.0,0.,24.0
1979-07-11 19:31:20.320 ,5,1,0.,24.0,0.,24.0,0.,24.0,0.,24.0
1979-07-11 19:31:44.320 ,1,1,0.,24.0,0.,24.0,0.,24.0,0.,24.0
1979-07-11 19:32:08.320 ,2,1,0.,24.0,0.,24.0,0.,24.0,0.,24.0
1979-07-11 19:32:32.320 ,6,1,0.,24.0,0.,24.0,0.,24.0,0.,24.0
1979-07-11 19:32:56.320 ,5,1,0.,24.0,0.,24.0,0.,24.0,0.,24.0
1979-07-11 19:33:20.320 ,1,1,0.,24.0,0.,24.0,0.,24.0,0.,24.0
1979-07-11 19:33:44.320 ,2,1,0.,24.0,0.,24.0,0.,24.0,0.,24.0
1979-07-11 19:34:08.320 ,6,1,0.,24.0,0.,24.0,0.,24.0,0.,24.0
1979-07-11 19:34:32.320 ,5,1,0.,24.0,0.,24.0,0.,24.0,0.,24.0
1979-07-11 19:34:56.320 ,1,1,0.,24.0,0.,24.0,0.,24.0,0.,24.0
1979-07-11 19:35:20.320 ,2,1,0.,24.0,0.,24.0,0.,24.0,0.,24.0
1979-07-11 19:35:44.320 ,6,1,0.,24.0,0.,24.0,0.,24.0,0.,24.0
1979-07-11 19:36:08.320 ,5,1,0.,24.0,0.,24.0,0.,24.0,0.,24.0
1979-07-11 19:36:32.320 ,1,1,0.,24.0,0.,24.0,0.,24.0,0.,24.0
1979-07-11 19:36:56.320 ,2,1,0.,24.0,0.,24.0,0.,24.0,0.,24.0
1979-07-11 19:37:20.320 ,6,1,0.,24.0,0.,24.0,0.,24.0,0.,24.0
1979-07-11 19:37:44.320 ,5,1,0.,24.0,0.,24.0,0.,24.0,0.,24.0
1979-07-11 19:38:08.320 ,1,1,0.,24.0,0.,24.0,0.,24.0,0.,24.0
1979-07-11 19:38:32.320 ,2,1,0.,24.0,0.,24.0,0.,24.0,0.,24.0
1979-07-11 19:38:56.320 ,6,1,0.,24.0,0.,24.0,0.,24.0,0.,24.0
1979-07-11 19:39:20.320 ,5,1,0.,24.0,0.,24.0,0.,24.0,0.,24.0
1979-07-11 19:39:44.320 ,1,1,0.,24.0,0.,24.0,0.,24.0,0.,24.0
1979-07-11 19:40:08.320 ,2,1,0.,24.0,0.,24.0,0.,24.0,0.,24.0
1979-07-11 19:40:32.320 ,6,1,0.,24.0,0.,24.0,0.,24.0,0.,24.0
1979-07-11 19:40:56.320 ,5,1,0.,24.0,0.,24.0,0.,24.0,0.,24.0
1979-07-11 19:41:20.320 ,1,1,0.,24.0,0.,24.0,0.,24.0,0.,24.0
1979-07-11 19:41:44.320 ,0,0,0.,24.0,0.,24.0,0.,24.0,0.,24.0
1979-07-11 19:42:08.320 ,0,0,0.,24.0,0.,24.0,0.,24.0,0.,24.0
1979-07-11 19:42:32.320 ,5,1,0.,24.0,0.,24.0,0.,24.0,0.,24.0
1979-07-11 19:42:56.320 ,5,0,0.,24.0,0.,24.0,0.,24.0,0.,24.0
1979-07-11 19:43:20.320 ,4,1,0.,24.0,0.,24.0,0.,24.0,0.,24.0
1979-07-11 19:43:44.320 ,4,0,0.,24.0,0.,24.0,0.,24.0,0.,24.0
1979-07-11 19:44:08.320 ,3,1,0.,24.0,0.,24.0,0.,24.0,0.,24.0
1979-07-11 19:44:32.320 ,3,0,0.,24.0,0.,24.0,0.,24.0,0.,24.0
1979-07-11 19:44:56.320 ,2,1,0.,24.0,0.,24.0,0.,24.0,0.,24.0
1979-07-11 19:45:20.320 ,2,0,0.,24.0,0.,24.0,0.,24.0,0.,24.0
1979-07-11 19:45:44.320 ,1,1,0.,24.0,0.,24.0,0.,24.0,0.,24.0
1979-07-11 19:46:08.320 ,1,0,0.,24.0,0.,24.0,0.,24.0,0.,24.0
1979-07-11 19:46:32.320 ,0,1,0.,24.0,0.,24.0,0.,24.0,0.,24.0
1979-07-11 19:46:56.320 ,0,0,0.,24.0,0.,24.0,0.,24.0,0.,24.0
1979-07-11 19:47:20.320 ,0,1,0.,24.0,0.,24.0,0.,24.0,0.,24.0
1979-07-11 19:47:44.320 ,0,0,0.,24.0,0.,24.0,0.,24.0,0.,24.0
1979-07-11 19:48:08.320 ,1,1,0.,24.0,0.,24.0,0.,24.0,0.,24.0
1979-07-11 19:48:32.320 ,1,0,0.,24.0,0.,24.0,0.,24.0,0.,24.0
1979-07-11 19:48:56.320 ,2,1,0.,24.0,0.,24.0,0.,24.0,0.,24.0
1979-07-11 19:49:20.320 ,2,0,0.,24.0,0.,24.0,0.,24.0,0.,24.0
1979-07-11 19:49:44.320 ,3,1,0.,24.0,0.,24.0,0.,24.0,0.,24.0
1979-07-11 19:50:08.320 ,3,0,0.,24.0,0.,24.0,0.,24.0,0.,24.0
1979-07-11 19:50:32.320 ,4,1,0.,24.0,0.,24.0,0.,24.0,0.,24.0
1979-07-11 19:50:56.320 ,4,0,0.,24.0,0.,24.0,0.,24.0,0.,24.0
1979-07-11 19:51:20.320 ,5,1,0.,24.0,0.,24.0,0.,24.0,0.,24.0
1979-07-11 19:51:44.320 ,5,0,0.,24.0,0.,24.0,0.,24.0,0.,24.0
1979-07-11 19:52:08.320 ,6,1,0.,24.0,0.,24.0,0.,24.0,0.,24.0
1979-07-11 19:52:32.320 ,6,0,0.,24.0,0.,24.0,0.,24.0,0.,24.0
1979-07-11 19:52:56.320 ,7,1,0.,24.0,0.,24.0,0.,24.0,0.,24.0
1979-07-11 19:53:20.320 ,7,0,0.,24.0,0.,24.0,0.,24.0,0.,24.0
1979-07-11 19:53:44.320 ,7,1,0.,24.0,0.,24.0,0.,24.0,0.,24.0
1979-07-11 19:54:08.320 ,7,0,0.,24.0,0.,24.0,0.,24.0,0.,24.0
1979-07-11 19:54:32.320 ,6,1,0.,24.0,0.,24.0,0.,24.0,0.,24.0
1979-07-11 19:54:56.320 ,6,0,0.,24.0,0.,24.0,0.,24.0,0.,24.0
1979-07-11 19:55:20.320 ,5,1,0.,24.0,0.,24.0,0.,24.0,0.,24.0
1979-07-11 19:55:44.320 ,5,0,0.,24.0,0.,24.0,0.,24.0,0.,24.0
1979-07-11 19:56:08.320 ,4,1,0.,24.0,0.,24.0,0.,24.0,0.,24.0
1979-07-11 19:56:32.320 ,4,0,0.,24.0,0.,24.0,0.,24.0,0.,24.0
1979-07-11 19:56:56.320 ,3,1,0.,24.0,0.,24.0,0.,24.0,0.,24.0
1979-07-11 19:57:20.320 ,3,0,0.,24.0,0.,24.0,0.,24.0,0.,24.0
1979-07-11 19:57:44.320 ,2,1,0.,24.0,0.,24.0,0.,24.0,0.,24.0
1979-07-11 19:58:08.320 ,2,0,0.,24.0,0.,24.0,0.,24.0,0.,24.0
1979-07-11 19:58:32.320 ,1,1,0.,24.0,0.,24.0,0.,24.0,0.,24.0
1979-07-11 19:58:56.320 ,1,0,0.,24.0,0.,24.0,0.,24.0,0.,24.0
1979-07-11 19:59:20.320 ,0,1,0.,24.0,0.,24.0,0.,24.0,0.,24.0
1979-07-11 19:59:44.320 ,0,0,0.,24.0,0.,24.0,0.,24.0,0.,24.0
1979-07-11 20:00:08.320 ,0,1,0.,24.0,0.,24.0,0.,24.0,0.,24.0
1979-07-11 20:00:32.320 ,0,0,0.,24.0,0.,24.0,0.,24.0,0.,24.0
1979-07-11 20:00:56.320 ,1,1,0.,24.0,0.,24.0,0.,24.0,0.,24.0
1979-07-11 20:01:20.320 ,1,0,0.,24.0,0.,24.0,0.,24.0,0.,24.0
1979-07-11 20:01:44.320 ,2,1,0.,24.0,0.,24.0,0.,24.0,0.,24.0
1979-07-11 20:02:08.320 ,2,0,0.,24.0,0.,24.0,0.,24.0,0.,24.0
1979-07-11 20:02:32.320 ,3,1,0.,24.0,0.,24.0,0.,24.0,0.,24.0
1979-07-11 20:02:56.320 ,3,0,0.,24.0,0.,24.0,0.,24.0,0.,24.0
1979-07-11 20:03:20.320 ,4,1,0.,24.0,0.,24.0,0.,24.0,0.,24.0
1979-07-11 20:03:44.320 ,4,0,0.,24.0,0.,24.0,0.,24.0,0.,24.0
1979-07-11 20:04:08.320 ,5,1,0.,24.0,0.,24.0,0.,24.0,0.,24.0
1979-07-11 20:04:32.320 ,5,0,0.,24.0,0.,24.0,0.,24.0,0.,24.0
1979-07-11 20:04:56.320 ,6,1,0.,24.0,0.,24.0,0.,24.0,0.,24.0
1979-07-11 20:05:20.320 ,6,0,0.,24.0,0.,24.0,0.,24.0,0.,24.0
1979-07-11 20:05:44.320 ,7,0,0.,24.0,0.,24.0,0.,24.0,0.,24.0
1979-07-11 20:06:08.320 ,7,0,0.,24.0,0.,24.0,0.,24.0,0.,24.0
1979-07-11 20:06:32.320 ,5,1,0.,24.0,0.,24.0,0.,24.0,0.,24.0
1979-07-11 20:06:56.320 ,1,1,0.,24.0,0.,24.0,0.,24.0,0.,24.0
1979-07-11 20:07:20.320 ,2,1,0.,24.0,0.,24.0,0.,24.0,0.,24.0
1979-07-11 20:07:44.320 ,6,1,0.,24.0,0.,24.0,0.,24.0,0.,24.0
1979-07-11 20:08:08.320 ,5,1,0.,24.0,0.,24.0,0.,24.0,0.,24.0
1979-07-11 20:08:32.320 ,1,1,0.,24.0,0.,24.0,0.,24.0,0.,24.0
1979-07-11 20:08:56.320 ,2,1,0.,24.0,0.,24.0,0.,24.0,0.,24.0
1979-07-11 20:09:20.320 ,6,1,0.,24.0,0.,24.0,0.,24.0,0.,24.0
1979-07-11 20:09:44.320 ,5,1,0.,24.0,0.,24.0,0.,24.0,0.,24.0
1979-07-11 20:10:08.320 ,1,1,0.,24.0,0.,24.0,0.,24.0,0.,24.0
1979-07-11 20:10:32.320 ,2,1,0.,24.0,0.,24.0,0.,24.0,0.,24.0
1979-07-11 20:10:56.320 ,6,1,0.,24.0,0.,24.0,0.,24.0,0.,24.0
1979-07-11 20:11:20.320 ,5,1,0.,24.0,0.,24.0,0.,24.0,0.,24.0
1979-07-11 20:11:44.320 ,1,1,0.,24.0,0.,24.0,0.,24.0,0.,24.0
1979-07-11 20:12:08.320 ,2,1,0.,24.0,0.,24.0,0.,24.0,0.,24.0
1979-07-11 20:12:32.320 ,6,1,0.,24.0,0.,24.0,0.,24.0,0.,24.0
1979-07-11 20:12:56.320 ,5,1,0.,24.0,0.,24.0,0.,24.0,0.,24.0
1979-07-11 20:13:20.320 ,1,1,0.,24.0,0.,24.0,0.,24.0,0.,24.0
1979-07-11 20:13:44.320 ,2,1,0.,24.0,0.,24.0,0.,24.0,0.,24.0
1979-07-11 20:14:08.320 ,6,1,0.,24.0,0.,24.0,0.,24.0,0.,24.0
1979-07-11 20:14:32.320 ,5,1,0.,24.0,0.,24.0,0.,24.0,0.,24.0
1979-07-11 20:14:56.320 ,1,1,0.,24.0,0.,24.0,0.,24.0,0.,24.0
1979-07-11 20:15:20.320 ,2,1,0.,24.0,0.,24.0,0.,24.0,0.,24.0
1979-07-11 20:15:44.320 ,6,1,0.,24.0,0.,24.0,0.,24.0,0.,24.0
1979-07-11 20:16:08.320 ,5,1,0.,24.0,0.,24.0,0.,24.0,0.,24.0
1979-07-11 20:16:32.320 ,1,1,0.,24.0,0.,24.0,0.,24.0,0.,24.0
1979-07-11 20:16:56.320 ,0,0,0.,24.0,0.,24.0,0.,24.0,0.,24.0
1979-07-11 20:17:20.320 ,0,0,0.,24.0,0.,24.0,0.,24.0,0.,24.0
1979-07-11 20:17:44.320 ,5,1,0.,24.0,0.,24.0,0.,24.0,0.,24.0
1979-07-11 20:18:08.320 ,5,0,0.,24.0,0.,24.0,0.,24.0,0.,24.0
1979-07-11 20:18:32.320 ,4,1,0.,24.0,0.,24.0,0.,24.0,0.,24.0
1979-07-11 20:18:56.320 ,4,0,0.,24.0,0.,24.0,0.,24.0,0.,24.0
1979-07-11 20:19:20.320 ,3,1,0.,24.0,0.,24.0,0.,24.0,0.,24.0
1979-07-11 20:19:44.320 ,3,0,0.,24.0,0.,24.0,0.,24.0,0.,24.0
1979-07-11 20:20:08.320 ,2,1,0.,24.0,0.,24.0,0.,24.0,0.,24.0
1979-07-11 20:20:32.320 ,2,0,0.,24.0,0.,24.0,0.,24.0,0.,24.0
1979-07-11 20:20:56.320 ,1,1,0.,24.0,0.,24.0,0.,24.0,0.,24.0
1979-07-11 20:21:20.320 ,1,0,0.,24.0,0.,24.0,0.,24.0,0.,24.0
1979-07-11 20:21:44.320 ,0,1,0.,24.0,0.,24.0,0.,24.0,0.,24.0
1979-07-11 20:22:08.320 ,0,0,0.,24.0,0.,24.0,0.,24.0,0.,24.0
1979-07-11 20:22:32.320 ,0,1,0.,24.0,0.,24.0,0.,24.0,0.,24.0
1979-07-11 20:22:56.320 ,0,0,0.,24.0,0.,24.0,0.,24.0,0.,24.0
1979-07-11 20:23:20.320 ,1,1,0.,24.0,0.,24.0,0.,24.0,0.,24.0
1979-07-11 20:23:44.320 ,1,0,0.,24.0,0.,24.0,0.,24.0,0.,24.0
1979-07-11 20:24:08.320 ,2,1,0.,24.0,0.,24.0,0.,24.0,0.,24.0
1979-07-11 20:24:32.320 ,2,0,0.,24.0,0.,24.0,0.,24.0,0.,24.0
1979-07-11 20:24:56.320 ,3,1,0.,24.0,0.,24.0,0.,24.0,0.,24.0
1979-07-11 20:25:20.320 ,3,0,0.,24.0,0.,24.0,0.,24.0,0.,24.0
1979-07-11 20:25:44.320 ,4,1,0.,24.0,0.,24.0,0.,24.0,0.,24.0
1979-07-11 20:26:08.320 ,4,0,0.,24.0,0.,24.0,0.,24.0,0.,24.0
1979-07-11 20:26:32.320 ,5,1,0.,24.0,0.,24.0,0.,24.0,0.,24.0
1979-07-11 20:26:56.320 ,5,0,0.,24.0,0.,24.0,0.,24.0,0.,24.0
1979-07-11 20:27:20.320 ,6,1,0.,24.0,0.,24.0,0.,24.0,0.,24.0
1979-07-11 20:27:44.320 ,6,0,0.,24.0,0.,24.0,0.,24.0,0.,24.0
1979-07-11 20:28:08.320 ,7,1,0.,24.0,0.,24.0,0.,24.0,0.,24.0
1979-07-11 20:28:32.320 ,7,0,0.,24.0,0.,24.0,0.,24.0,0.,24.0
1979-07-11 20:28:56.320 ,7,1,0.,24.0,0.,24.0,0.,24.0,0.,24.0
1979-07-11 20:29:20.320 ,7,0,0.,24.0,0.,24.0,0.,24.0,0.,24.0
1979-07-11 20:29:44.320 ,6,1,0.,24.0,0.,24.0,0.,24.0,0.,24.0
1979-07-11 20:30:08.320 ,6,0,0.,24.0,0.,24.0,0.,24.0,0.,24.0
1979-07-11 20:30:32.320 ,5,1,0.,24.0,0.,24.0,0.,24.0,0.,24.0
1979-07-11 20:30:56.320 ,5,0,0.,24.0,0.,24.0,0.,24.0,0.,24.0
1979-07-11 20:31:20.320 ,4,1,0.,24.0,0.,24.0,0.,24.0,0.,24.0
1979-07-11 20:31:44.320 ,4,0,0.,24.0,0.,24.0,0.,24.0,0.,24.0
1979-07-11 20:32:08.320 ,3,1,0.,24.0,0.,24.0,0.,24.0,0.,24.0
1979-07-11 20:32:32.320 ,3,0,0.,24.0,0.,24.0,0.,24.0,0.,24.0
1979-07-11 20:32:56.320 ,2,1,0.,24.0,0.,24.0,0.,24.0,0.,24.0
1979-07-11 20:33:20.320 ,2,0,0.,24.0,0.,24.0,0.,24.0,0.,24.0
1979-07-11 20:33:44.320 ,1,1,0.,24.0,0.,24.0,0.,24.0,0.,24.0
1979-07-11 20:34:08.320 ,1,0,0.,24.0,0.,24.0,0.,24.0,0.,24.0
1979-07-11 20:34:32.320 ,0,1,0.,24.0,0.,24.0,0.,24.0,0.,24.0
1979-07-11 20:34:56.320 ,0,0,0.,24.0,0.,24.0,0.,24.0,0.,24.0
1979-07-11 20:35:20.320 ,0,1,0.,24.0,0.,24.0,0.,24.0,0.,24.0
1979-07-11 20:35:44.320 ,0,0,0.,24.0,0.,24.0,0.,24.0,0.,24.0
1979-07-11 20:36:08.320 ,1,1,0.,24.0,0.,24.0,0.,24.0,0.,24.0